Location: Chicago
(41.8500°N, 87.6500°W)
Time: 18:47:10
(UTC-06:00)

ISS - Visible Passes

Search period start: 05 December 2016 00:00
Search period end: 15 December 2016 00:00
Orbit: 401 x 410 km, 51.6° (Epoch: 06 December)

Date Brightness Start Highest point End Pass type
(mag) Time Alt. Az. Time Alt. Az. Time Alt. Az.
05 Dec -1.3 18:12:21 10° WNW 18:14:53 21° NNW 18:14:53 21° NNW visible
06 Dec -1.8 17:19:54 10° W 17:22:47 27° NNW 17:25:01 14° NNE visible
07 Dec -1.1 18:05:40 10° NW 18:07:47 16° N 18:07:47 16° N visible
08 Dec -1.3 17:13:10 10° WNW 17:15:37 19° NNW 17:17:51 11° NNE visible
09 Dec -1.0 17:58:46 10° NW 18:00:36 15° N 18:00:36 15° N visible
10 Dec -1.1 17:06:23 10° NW 17:08:28 16° N 17:10:34 10° NNE visible
11 Dec -1.2 17:51:26 10° NNW 17:53:26 16° N 17:53:26 16° N visible
12 Dec -1.2 16:59:19 10° NW 17:01:19 15° N 17:03:21 10° NE visible
12 Dec -0.5 18:35:42 10° NW 18:36:14 13° NNW 18:36:14 13° NNW visible
13 Dec -1.7 17:43:48 10° NW 17:46:24 21° NNE 17:46:25 21° NNE visible
14 Dec -1.4 16:51:49 10° NNW 16:54:06 17° N 16:56:23 10° NE visible
14 Dec -1.3 18:27:55 10° NW 18:29:23 23° NW 18:29:23 23° NW visible
